Location: Newark
(34.6283°N, 36.0776°E)
Time: 19:44:35
(UTC+00:00)

Tiros 1 despin weight - Pass Details

Date: 25 September 2019
Orbit: 593 x 643 km, 48.2° (Epoch: 22 October)

Event Time Altitude Azimuth Distance (km) Brightness Sun altitude
Rises 15:30:06 0° 292° (WNW) 2,836 ? -1.1°
Reaches altitude 10° 15:32:53 10° 276° (W) 1,925 ? -1.6°
Maximum altitude 15:36:05 20° 229° (SW) 1,388 ? -2.3°
Drops below altitude 10° 15:39:17 10° 182° (S) 1,911 ? -3.0°
Sets 15:42:02 0° 165° (SSE) 2,809 ? -3.5°
